Time,TemperatureF,DewpointF,PressureIn,WindDirection,WindDirectionDegrees,WindSpeedMPH,WindSpeedGustMPH,Humidity,HourlyPrecipIn,Conditions,Clouds,dailyrainin,SoftwareType,DateUTC
2013-06-20 00:01:00,53.4,43.5,30.29,North,0,0.0,0.0,69,0.00,,,0.00,WUHU21623XXSP,2013-06-20 04:01:00,
2013-06-20 00:06:00,53.4,43.9,30.29,North,0,0.0,0.0,70,0.00,,,0.00,WUHU21623XXSP,2013-06-20 04:06:00,
2013-06-20 00:11:00,53.2,44.1,30.29,North,0,0.0,0.0,71,0.00,,,0.00,WUHU21623XXSP,2013-06-20 04:11:00,
2013-06-20 00:16:00,53.1,43.9,30.29,North,0,0.0,0.0,71,0.00,,,0.00,WUHU21623XXSP,2013-06-20 04:16:00,
2013-06-20 00:21:00,52.9,44.1,30.29,North,0,0.0,0.0,72,0.00,,,0.00,WUHU21623XXSP,2013-06-20 04:21:00,
2013-06-20 00:26:00,52.7,43.6,30.29,North,0,0.0,0.0,71,0.00,,,0.00,WUHU21623XXSP,2013-06-20 04:26:00,
2013-06-20 00:31:00,52.5,44.1,30.29,North,0,0.0,0.0,73,0.00,,,0.00,WUHU21623XXSP,2013-06-20 04:31:00,
2013-06-20 00:36:00,52.9,44.5,30.29,North,0,0.0,0.0,73,0.00,,,0.00,WUHU21623XXSP,2013-06-20 04:36:00,
2013-06-20 00:41:00,52.9,44.5,30.30,North,0,0.0,0.0,73,0.00,,,0.00,WUHU21623XXSP,2013-06-20 04:41:00,
2013-06-20 00:46:00,52.7,44.0,30.29,North,0,0.0,0.0,72,0.00,,,0.00,WUHU21623XXSP,2013-06-20 04:46:00,
2013-06-20 00:51:00,52.7,44.0,30.29,North,0,0.0,0.0,72,0.00,,,0.00,WUHU21623XXSP,2013-06-20 04:51:00,
2013-06-20 00:56:00,52.7,43.6,30.29,North,0,0.0,0.0,71,0.00,,,0.00,WUHU21623XXSP,2013-06-20 04:56:00,
2013-06-20 01:01:00,52.9,43.8,30.29,North,0,0.0,0.0,71,0.00,,,0.00,WUHU21623XXSP,2013-06-20 05:01:00,
2013-06-20 01:06:00,52.7,43.6,30.29,North,0,0.0,0.0,71,0.00,,,0.00,WUHU21623XXSP,2013-06-20 05:06:00,
2013-06-20 01:11:00,52.5,43.1,30.29,North,0,0.0,0.0,70,0.00,,,0.00,WUHU21623XXSP,2013-06-20 05:11:00,
2013-06-20 01:16:00,52.5,43.8,30.30,North,0,0.0,0.0,72,0.00,,,0.00,WUHU21623XXSP,2013-06-20 05:16:00,
2013-06-20 01:21:00,52.5,43.4,30.29,North,0,0.0,0.0,71,0.00,,,0.00,WUHU21623XXSP,2013-06-20 05:21:00,
2013-06-20 01:26:00,52.5,43.4,30.30,North,0,0.0,0.0,71,0.00,,,0.00,WUHU21623XXSP,2013-06-20 05:26:00,
2013-06-20 01:31:00,52.7,43.3,30.30,North,0,0.0,0.0,70,0.00,,,0.00,WUHU21623XXSP,2013-06-20 05:31:00,
2013-06-20 01:36:00,52.9,43.0,30.29,North,0,0.0,0.0,69,0.00,,,0.00,WUHU21623XXSP,2013-06-20 05:36:00,
2013-06-20 01:41:00,53.2,43.3,30.30,North,0,0.0,0.0,69,0.00,,,0.00,WUHU21623XXSP,2013-06-20 05:41:00,
2013-06-20 01:46:00,53.2,43.3,30.30,North,0,0.0,0.0,69,0.00,,,0.00,WUHU21623XXSP,2013-06-20 05:46:00,
2013-06-20 01:51:00,53.1,43.2,30.30,North,0,0.0,0.0,69,0.00,,,0.00,WUHU21623XXSP,2013-06-20 05:51:00,
2013-06-20 01:56:00,52.9,43.0,30.30,North,0,0.0,0.0,69,0.00,,,0.00,WUHU21623XXSP,2013-06-20 05:56:00,
2013-06-20 02:01:00,52.7,43.3,30.30,North,0,0.0,0.0,70,0.00,,,0.00,WUHU21623XXSP,2013-06-20 06:01:00,
2013-06-20 02:06:00,52.5,43.8,30.30,North,0,0.0,0.0,72,0.00,,,0.00,WUHU21623XXSP,2013-06-20 06:06:00,
2013-06-20 02:11:00,52.5,43.4,30.30,North,0,0.0,0.0,71,0.00,,,0.00,WUHU21623XXSP,2013-06-20 06:11:00,
2013-06-20 02:16:00,52.3,43.6,30.31,North,0,0.0,0.0,72,0.00,,,0.00,WUHU21623XXSP,2013-06-20 06:16:00,
2013-06-20 02:21:00,52.2,43.4,30.31,North,0,0.0,0.0,72,0.00,,,0.00,WUHU21623XXSP,2013-06-20 06:21:00,
2013-06-20 02:26:00,52.0,43.6,30.31,North,0,0.0,0.0,73,0.00,,,0.00,WUHU21623XXSP,2013-06-20 06:26:00,
2013-06-20 02:31:00,51.8,43.5,30.31,North,0,0.0,0.0,73,0.00,,,0.00,WUHU21623XXSP,2013-06-20 06:31:00,
2013-06-20 02:36:00,51.6,42.9,30.31,North,0,0.0,0.0,72,0.00,,,0.00,WUHU21623XXSP,2013-06-20 06:36:00,
2013-06-20 02:41:00,51.6,42.9,30.31,North,0,0.0,0.0,72,0.00,,,0.00,WUHU21623XXSP,2013-06-20 06:41:00,
2013-06-20 02:46:00,51.6,43.3,30.31,North,0,0.0,0.0,73,0.00,,,0.00,WUHU21623XXSP,2013-06-20 06:46:00,
2013-06-20 02:51:00,51.4,43.4,30.31,North,0,0.0,0.0,74,0.00,,,0.00,WUHU21623XXSP,2013-06-20 06:51:00,
2013-06-20 02:56:00,51.1,42.7,30.31,North,0,0.0,0.0,73,0.00,,,0.00,WUHU21623XXSP,2013-06-20 06:56:00,
2013-06-20 03:01:00,50.9,42.9,30.31,North,0,0.0,0.0,74,0.00,,,0.00,WUHU21623XXSP,2013-06-20 07:01:00,
2013-06-20 03:06:00,50.7,42.7,30.31,North,0,0.0,0.0,74,0.00,,,0.00,WUHU21623XXSP,2013-06-20 07:06:00,
2013-06-20 03:11:00,50.7,42.7,30.31,North,0,0.0,0.0,74,0.00,,,0.00,WUHU21623XXSP,2013-06-20 07:11:00,
2013-06-20 03:16:00,50.7,43.1,30.31,North,0,0.0,0.0,75,0.00,,,0.00,WUHU21623XXSP,2013-06-20 07:16:00,
2013-06-20 03:21:00,50.5,42.9,30.31,North,0,0.0,0.0,75,0.00,,,0.00,WUHU21623XXSP,2013-06-20 07:21:00,
2013-06-20 03:26:00,50.5,43.2,30.31,North,0,0.0,0.0,76,0.00,,,0.00,WUHU21623XXSP,2013-06-20 07:26:00,
2013-06-20 03:31:00,50.4,43.1,30.31,North,0,0.0,0.0,76,0.00,,,0.00,WUHU21623XXSP,2013-06-20 07:31:00,
2013-06-20 03:36:00,49.8,42.2,30.31,North,0,0.0,0.0,75,0.00,,,0.00,WUHU21623XXSP,2013-06-20 07:36:00,
2013-06-20 03:41:00,49.8,42.9,30.31,North,0,0.0,0.0,77,0.00,,,0.00,WUHU21623XXSP,2013-06-20 07:41:00,
2013-06-20 03:46:00,49.8,42.9,30.31,North,0,0.0,0.0,77,0.00,,,0.00,WUHU21623XXSP,2013-06-20 07:46:00,
2013-06-20 03:51:00,49.6,43.0,30.31,North,0,0.0,0.0,78,0.00,,,0.00,WUHU21623XXSP,2013-06-20 07:51:00,
2013-06-20 03:56:00,49.6,43.0,30.31,North,0,0.0,0.0,78,0.00,,,0.00,WUHU21623XXSP,2013-06-20 07:56:00,
2013-06-20 04:01:00,49.6,43.0,30.31,North,0,0.0,0.0,78,0.00,,,0.00,WUHU21623XXSP,2013-06-20 08:01:00,
2013-06-20 04:06:00,49.6,43.0,30.31,North,0,0.0,0.0,78,0.00,,,0.00,WUHU21623XXSP,2013-06-20 08:06:00,
2013-06-20 04:11:00,49.3,43.0,30.32,North,0,0.0,0.0,79,0.00,,,0.00,WUHU21623XXSP,2013-06-20 08:11:00,
2013-06-20 04:16:00,49.6,43.7,30.32,North,0,0.0,0.0,80,0.00,,,0.00,WUHU21623XXSP,2013-06-20 08:16:00,
2013-06-20 04:21:00,49.1,42.8,30.33,North,0,0.0,0.0,79,0.00,,,0.00,WUHU21623XXSP,2013-06-20 08:21:00,
2013-06-20 04:26:00,48.9,42.6,30.32,North,0,0.0,0.0,79,0.00,,,0.00,WUHU21623XXSP,2013-06-20 08:26:00,
2013-06-20 04:31:00,48.7,42.8,30.33,North,0,0.0,0.0,80,0.00,,,0.00,WUHU21623XXSP,2013-06-20 08:31:00,
2013-06-20 04:36:00,48.7,42.8,30.33,North,0,0.0,0.0,80,0.00,,,0.00,WUHU21623XXSP,2013-06-20 08:36:00,
2013-06-20 04:41:00,48.6,42.6,30.33,North,0,0.0,0.0,80,0.00,,,0.00,WUHU21623XXSP,2013-06-20 08:41:00,
2013-06-20 04:46:00,48.4,42.7,30.33,North,0,0.0,0.0,81,0.00,,,0.00,WUHU21623XXSP,2013-06-20 08:46:00,
2013-06-20 04:51:00,48.0,42.4,30.33,North,0,0.0,0.0,81,0.00,,,0.00,WUHU21623XXSP,2013-06-20 08:51:00,
2013-06-20 04:56:00,48.0,42.4,30.34,North,0,0.0,0.0,81,0.00,,,0.00,WUHU21623XXSP,2013-06-20 08:56:00,
2013-06-20 05:01:00,48.0,42.7,30.34,North,0,0.0,0.0,82,0.00,,,0.00,WUHU21623XXSP,2013-06-20 09:01:00,
2013-06-20 05:06:00,48.0,42.7,30.34,North,0,0.0,0.0,82,0.00,,,0.00,WUHU21623XXSP,2013-06-20 09:06:00,
2013-06-20 05:11:00,48.0,42.7,30.34,North,0,0.0,0.0,82,0.00,,,0.00,WUHU21623XXSP,2013-06-20 09:11:00,
2013-06-20 05:16:00,47.7,42.4,30.34,North,0,0.0,0.0,82,0.00,,,0.00,WUHU21623XXSP,2013-06-20 09:16:00,
2013-06-20 05:21:00,47.3,42.1,30.34,North,0,0.0,0.0,82,0.00,,,0.00,WUHU21623XXSP,2013-06-20 09:21:00,
2013-06-20 05:26:00,47.1,41.9,30.35,North,0,0.0,0.0,82,0.00,,,0.00,WUHU21623XXSP,2013-06-20 09:26:00,
2013-06-20 05:31:00,46.8,41.9,30.34,North,0,0.0,0.0,83,0.00,,,0.00,WUHU21623XXSP,2013-06-20 09:31:00,
2013-06-20 05:36:00,46.8,41.9,30.34,North,0,0.0,0.0,83,0.00,,,0.00,WUHU21623XXSP,2013-06-20 09:36:00,
2013-06-20 05:41:00,46.8,41.9,30.34,North,0,0.0,0.0,83,0.00,,,0.00,WUHU21623XXSP,2013-06-20 09:41:00,
2013-06-20 05:46:00,46.8,42.2,30.34,North,0,0.0,0.0,84,0.00,,,0.00,WUHU21623XXSP,2013-06-20 09:46:00,
2013-06-20 05:51:00,46.9,42.4,30.35,North,0,0.0,0.0,84,0.00,,,0.00,WUHU21623XXSP,2013-06-20 09:51:00,
2013-06-20 05:56:00,46.9,42.4,30.35,North,0,0.0,0.0,84,0.00,,,0.00,WUHU21623XXSP,2013-06-20 09:56:00,
2013-06-20 06:01:00,47.1,42.2,30.35,NNW,337,0.0,0.0,83,0.00,,,0.00,WUHU21623XXSP,2013-06-20 10:01:00,
2013-06-20 06:06:00,47.1,42.2,30.35,NNW,337,0.0,0.0,83,0.00,,,0.00,WUHU21623XXSP,2013-06-20 10:06:00,
2013-06-20 06:11:00,47.3,42.4,30.35,NNW,337,0.0,0.0,83,0.00,,,0.00,WUHU21623XXSP,2013-06-20 10:11:00,
2013-06-20 06:16:00,47.3,42.4,30.36,NNW,337,0.0,0.0,83,0.00,,,0.00,WUHU21623XXSP,2013-06-20 10:16:00,
2013-06-20 06:21:00,47.5,42.5,30.36,NNW,337,0.0,0.0,83,0.00,,,0.00,WUHU21623XXSP,2013-06-20 10:21:00,
2013-06-20 06:26:00,47.7,42.7,30.36,NNW,337,0.0,0.0,83,0.00,,,0.00,WUHU21623XXSP,2013-06-20 10:26:00,
2013-06-20 06:31:00,47.8,42.9,30.36,NNW,337,0.0,0.0,83,0.00,,,0.00,WUHU21623XXSP,2013-06-20 10:31:00,
2013-06-20 06:36:00,47.8,42.9,30.36,NNW,337,0.0,0.0,83,0.00,,,0.00,WUHU21623XXSP,2013-06-20 10:36:00,
2013-06-20 06:40:00,48.0,43.1,30.36,NNW,337,0.0,0.0,83,0.00,,,0.00,WUHU21623XXSP,2013-06-20 10:40:00,
2013-06-20 06:45:00,48.4,43.4,30.36,NNW,337,0.0,0.0,83,0.00,,,0.00,WUHU21623XXSP,2013-06-20 10:45:00,
2013-06-20 06:50:00,48.7,43.8,30.36,NNW,337,0.0,0.0,83,0.00,,,0.00,WUHU21623XXSP,2013-06-20 10:50:00,
2013-06-20 06:55:00,49.1,43.9,30.36,NNW,337,0.0,0.0,83,0.00,,,0.00,WUHU21623XXSP,2013-06-20 10:55:00,
2013-06-20 07:00:00,49.3,44.0,30.36,NNW,337,0.0,0.0,82,0.00,,,0.00,WUHU21623XXSP,2013-06-20 11:00:00,
2013-06-20 07:05:00,49.8,44.3,30.36,NNW,337,0.0,0.0,82,0.00,,,0.00,WUHU21623XXSP,2013-06-20 11:05:00,
2013-06-20 07:10:00,49.8,44.5,30.37,NNW,337,0.0,0.0,82,0.00,,,0.00,WUHU21623XXSP,2013-06-20 11:10:00,
2013-06-20 07:15:00,50.2,44.9,30.37,NNW,337,0.0,0.0,82,0.00,,,0.00,WUHU21623XXSP,2013-06-20 11:15:00,
2013-06-20 07:20:00,50.5,45.2,30.37,NNW,337,0.0,0.0,82,0.00,,,0.00,WUHU21623XXSP,2013-06-20 11:20:00,
2013-06-20 07:25:00,50.9,45.6,30.37,NNW,337,0.0,0.0,82,0.00,,,0.00,WUHU21623XXSP,2013-06-20 11:25:00,
2013-06-20 07:30:00,51.4,46.4,30.37,NNW,337,0.0,0.0,83,0.00,,,0.00,WUHU21623XXSP,2013-06-20 11:30:00,
2013-06-20 07:35:00,51.6,46.6,30.37,NNW,337,0.0,0.0,83,0.00,,,0.00,WUHU21623XXSP,2013-06-20 11:35:00,
2013-06-20 07:40:00,52.0,47.0,30.37,NNW,337,0.0,0.0,83,0.00,,,0.00,WUHU21623XXSP,2013-06-20 11:40:00,
2013-06-20 07:45:00,52.3,47.0,30.38,NNW,337,0.0,0.0,82,0.00,,,0.00,WUHU21623XXSP,2013-06-20 11:45:00,
2013-06-20 07:50:00,52.9,47.9,30.38,NNW,337,0.0,0.0,83,0.00,,,0.00,WUHU21623XXSP,2013-06-20 11:50:00,
2013-06-20 07:55:00,53.8,47.8,30.37,NNW,337,0.0,0.0,80,0.00,,,0.00,WUHU21623XXSP,2013-06-20 11:55:00,
2013-06-20 08:00:00,54.7,47.9,30.38,NNW,337,0.0,0.0,78,0.00,,,0.00,WUHU21623XXSP,2013-06-20 12:00:00,
2013-06-20 08:05:00,55.0,47.9,30.38,NNW,337,0.0,0.0,77,0.00,,,0.00,WUHU21623XXSP,2013-06-20 12:05:00,
2013-06-20 08:10:00,55.4,47.9,30.38,NNW,337,0.0,0.0,76,0.00,,,0.00,WUHU21623XXSP,2013-06-20 12:10:00,
2013-06-20 08:15:00,55.9,47.4,30.38,NNW,337,0.0,0.0,73,0.00,,,0.00,WUHU21623XXSP,2013-06-20 12:15:00,
2013-06-20 08:20:00,56.3,47.0,30.38,NNW,337,0.0,0.0,71,0.00,,,0.00,WUHU21623XXSP,2013-06-20 12:20:00,
2013-06-20 08:25:00,57.0,46.5,30.38,NNW,337,0.0,0.0,68,0.00,,,0.00,WUHU21623XXSP,2013-06-20 12:25:00,
2013-06-20 08:30:00,57.9,45.8,30.38,NNW,337,0.0,0.0,64,0.00,,,0.00,WUHU21623XXSP,2013-06-20 12:30:00,
2013-06-20 08:35:00,57.9,46.6,30.38,NNW,337,0.0,0.0,66,0.00,,,0.00,WUHU21623XXSP,2013-06-20 12:35:00,
2013-06-20 08:40:00,57.9,47.4,30.38,NNW,337,0.0,0.0,68,0.00,,,0.00,WUHU21623XXSP,2013-06-20 12:40:00,
2013-06-20 08:45:00,58.3,47.7,30.38,NNW,337,0.0,0.0,68,0.00,,,0.00,WUHU21623XXSP,2013-06-20 12:45:00,
2013-06-20 08:50:00,58.8,47.9,30.38,NNW,337,0.0,0.0,67,0.00,,,0.00,WUHU21623XXSP,2013-06-20 12:50:00,
2013-06-20 08:55:00,59.0,48.9,30.38,NNW,337,0.0,0.0,69,0.00,,,0.00,WUHU21623XXSP,2013-06-20 12:55:00,
2013-06-20 09:00:00,59.5,49.4,30.38,NNW,337,0.0,0.0,69,0.00,,,0.00,WUHU21623XXSP,2013-06-20 13:00:00,
2013-06-20 09:05:00,59.9,47.3,30.38,NNW,337,0.0,0.0,63,0.00,,,0.00,WUHU21623XXSP,2013-06-20 13:05:00,
2013-06-20 09:10:00,60.6,47.2,30.38,NNW,337,0.0,0.0,61,0.00,,,0.00,WUHU21623XXSP,2013-06-20 13:10:00,
2013-06-20 09:15:00,61.0,48.3,30.38,NNW,337,0.0,0.0,63,0.00,,,0.00,WUHU21623XXSP,2013-06-20 13:15:00,
2013-06-20 09:20:00,61.3,47.4,30.38,ESE,112,0.0,0.0,60,0.00,,,0.00,WUHU21623XXSP,2013-06-20 13:20:00,
2013-06-20 09:25:00,61.5,48.4,30.37,ESE,112,0.0,0.0,62,0.00,,,0.00,WUHU21623XXSP,2013-06-20 13:25:00,
2013-06-20 09:30:00,62.2,46.8,30.37,SE,135,0.0,0.0,57,0.00,,,0.00,WUHU21623XXSP,2013-06-20 13:30:00,
2013-06-20 09:35:00,62.8,46.3,30.37,SSE,157,0.0,0.0,55,0.00,,,0.00,WUHU21623XXSP,2013-06-20 13:35:00,
2013-06-20 09:40:00,63.5,46.0,30.37,SSE,157,0.0,0.0,53,0.00,,,0.00,WUHU21623XXSP,2013-06-20 13:40:00,
2013-06-20 09:45:00,63.7,45.6,30.37,SSE,157,0.0,1.8,52,0.00,,,0.00,WUHU21623XXSP,2013-06-20 13:45:00,
2013-06-20 09:50:00,63.7,46.6,30.36,SSE,157,0.0,1.8,54,0.00,,,0.00,WUHU21623XXSP,2013-06-20 13:50:00,
2013-06-20 09:55:00,63.5,47.4,30.37,SSE,157,0.0,0.0,56,0.00,,,0.00,WUHU21623XXSP,2013-06-20 13:55:00,
2013-06-20 10:00:00,63.3,46.8,30.37,ESE,112,0.0,0.0,55,0.00,,,0.00,WUHU21623XXSP,2013-06-20 14:00:00,
2013-06-20 10:05:00,64.2,47.1,30.37,SE,135,0.0,0.0,54,0.00,,,0.00,WUHU21623XXSP,2013-06-20 14:05:00,
2013-06-20 10:10:00,64.8,47.1,30.37,SSE,157,0.0,0.0,53,0.00,,,0.00,WUHU21623XXSP,2013-06-20 14:10:00,
2013-06-20 10:15:00,65.5,47.9,30.36,SE,135,0.0,0.0,53,0.00,,,0.00,WUHU21623XXSP,2013-06-20 14:15:00,
2013-06-20 10:20:00,65.5,50.3,30.36,SSE,157,0.0,2.7,58,0.00,,,0.00,WUHU21623XXSP,2013-06-20 14:20:00,
2013-06-20 10:25:00,65.8,48.7,30.36,SSE,157,0.0,2.7,54,0.00,,,0.00,WUHU21623XXSP,2013-06-20 14:25:00,
2013-06-20 10:30:00,66.4,48.7,30.36,SSE,157,0.0,0.0,53,0.00,,,0.00,WUHU21623XXSP,2013-06-20 14:30:00,
2013-06-20 10:35:00,66.4,48.7,30.36,ESE,112,0.0,0.0,53,0.00,,,0.00,WUHU21623XXSP,2013-06-20 14:35:00,
2013-06-20 10:40:00,66.6,49.4,30.36,ESE,112,0.0,0.0,54,0.00,,,0.00,WUHU21623XXSP,2013-06-20 14:40:00,
2013-06-20 10:45:00,66.9,50.2,30.36,SE,135,0.0,3.1,55,0.00,,,0.00,WUHU21623XXSP,2013-06-20 14:45:00,
2013-06-20 10:50:00,66.7,50.5,30.37,SE,135,0.0,3.1,56,0.00,,,0.00,WUHU21623XXSP,2013-06-20 14:50:00,
2013-06-20 10:55:00,66.7,51.5,30.37,SE,135,0.0,0.0,58,0.00,,,0.00,WUHU21623XXSP,2013-06-20 14:55:00,
2013-06-20 11:00:00,67.1,48.4,30.37,SSE,157,0.0,2.5,51,0.00,,,0.00,WUHU21623XXSP,2013-06-20 15:00:00,
2013-06-20 11:05:00,67.1,49.9,30.37,SSE,157,0.0,2.5,54,0.00,,,0.00,WUHU21623XXSP,2013-06-20 15:05:00,
2013-06-20 11:10:00,67.1,48.4,30.37,SSE,157,0.0,3.4,51,0.00,,,0.00,WUHU21623XXSP,2013-06-20 15:10:00,
2013-06-20 11:15:00,67.8,49.1,30.37,South,180,0.0,3.8,51,0.00,,,0.00,WUHU21623XXSP,2013-06-20 15:15:00,
2013-06-20 11:20:00,68.2,48.9,30.36,SSE,157,0.0,3.8,50,0.00,,,0.00,WUHU21623XXSP,2013-06-20 15:20:00,
2013-06-20 11:25:00,67.8,48.0,30.36,SSW,202,0.0,4.7,49,0.00,,,0.00,WUHU21623XXSP,2013-06-20 15:25:00,
2013-06-20 11:30:00,68.5,48.6,30.36,SSW,202,0.0,4.7,49,0.00,,,0.00,WUHU21623XXSP,2013-06-20 15:30:00,
2013-06-20 11:35:00,68.7,52.3,30.36,SSW,202,0.0,2.5,53,0.00,,,0.00,WUHU21623XXSP,2013-06-20 15:35:00,
2013-06-20 11:40:00,69.6,51.2,30.36,South,180,1.8,1.8,52,0.00,,,0.00,WUHU21623XXSP,2013-06-20 15:40:00,
2013-06-20 11:45:00,69.3,50.4,30.36,SE,135,0.0,3.1,51,0.00,,,0.00,WUHU21623XXSP,2013-06-20 15:45:00,
2013-06-20 11:50:00,69.1,53.2,30.36,SE,135,0.0,3.1,57,0.00,,,0.00,WUHU21623XXSP,2013-06-20 15:50:00,
2013-06-20 11:55:00,69.1,51.7,30.36,NNW,337,0.0,1.3,54,0.00,,,0.00,WUHU21623XXSP,2013-06-20 15:55:00,
2013-06-20 12:00:00,69.6,48.4,30.36,South,180,0.0,6.0,47,0.00,,,0.00,WUHU21623XXSP,2013-06-20 16:00:00,
2013-06-20 12:05:00,69.6,49.6,30.36,SSE,157,0.0,6.0,49,0.00,,,0.00,WUHU21623XXSP,2013-06-20 16:05:00,
2013-06-20 12:10:00,69.3,51.4,30.36,SSE,157,7.2,7.2,53,0.00,,,0.00,WUHU21623XXSP,2013-06-20 16:10:00,
2013-06-20 12:15:00,69.6,50.2,30.36,South,180,0.0,7.2,50,0.00,,,0.00,WUHU21623XXSP,2013-06-20 16:15:00,
2013-06-20 12:20:00,70.0,51.0,30.36,WSW,247,0.0,8.7,51,0.00,,,0.00,WUHU21623XXSP,2013-06-20 16:20:00,
2013-06-20 12:25:00,70.0,47.6,30.36,NNE,22,2.5,8.7,45,0.00,,,0.00,WUHU21623XXSP,2013-06-20 16:25:00,
2013-06-20 12:30:00,70.3,53.4,30.36,SSE,157,0.0,5.6,55,0.00,,,0.00,WUHU21623XXSP,2013-06-20 16:30:00,
2013-06-20 12:35:00,70.9,50.1,30.36,South,180,2.0,6.3,48,0.00,,,0.00,WUHU21623XXSP,2013-06-20 16:35:00,
2013-06-20 12:40:00,71.4,48.8,30.36,SSE,157,0.0,6.7,45,0.00,,,0.00,WUHU21623XXSP,2013-06-20 16:40:00,
2013-06-20 12:45:00,71.4,47.7,30.36,SW,225,0.0,6.7,43,0.00,,,0.00,WUHU21623XXSP,2013-06-20 16:45:00,
2013-06-20 12:50:00,71.4,47.1,30.36,WSW,247,0.0,9.2,42,0.00,,,0.00,WUHU21623XXSP,2013-06-20 16:50:00,
2013-06-20 12:55:00,71.6,49.6,30.36,SSW,202,0.0,9.2,46,0.00,,,0.00,WUHU21623XXSP,2013-06-20 16:55:00,
2013-06-20 13:00:00,72.0,49.9,30.35,SSE,157,0.0,7.2,46,0.00,,,0.00,WUHU21623XXSP,2013-06-20 17:00:00,
2013-06-20 13:05:00,72.3,50.3,30.35,SSE,157,0.0,7.2,46,0.00,,,0.00,WUHU21623XXSP,2013-06-20 17:05:00,
2013-06-20 13:10:00,72.5,47.4,30.35,ESE,112,0.0,8.1,41,0.00,,,0.00,WUHU21623XXSP,2013-06-20 17:10:00,
2013-06-20 13:15:00,72.3,46.7,30.36,SE,135,0.0,8.1,40,0.00,,,0.00,WUHU21623XXSP,2013-06-20 17:15:00,
2013-06-20 13:20:00,72.5,46.9,30.36,SSW,202,0.0,6.7,40,0.00,,,0.00,WUHU21623XXSP,2013-06-20 17:20:00,
2013-06-20 13:25:00,72.3,47.3,30.35,SSE,157,3.6,9.6,41,0.00,,,0.00,WUHU21623XXSP,2013-06-20 17:25:00,
2013-06-20 13:30:00,72.5,47.4,30.35,NE,45,0.0,9.6,41,0.00,,,0.00,WUHU21623XXSP,2013-06-20 17:30:00,
2013-06-20 13:35:00,72.5,48.0,30.34,SSE,157,0.0,7.8,42,0.00,,,0.00,WUHU21623XXSP,2013-06-20 17:35:00,
2013-06-20 13:40:00,72.7,48.2,30.35,South,180,0.0,7.8,42,0.00,,,0.00,WUHU21623XXSP,2013-06-20 17:40:00,
2013-06-20 13:45:00,72.3,49.7,30.34,SSE,157,0.0,5.1,45,0.00,,,0.00,WUHU21623XXSP,2013-06-20 17:45:00,
2013-06-20 13:50:00,73.2,51.7,30.34,SSE,157,0.0,5.8,47,0.00,,,0.00,WUHU21623XXSP,2013-06-20 17:50:00,
2013-06-20 13:55:00,73.0,51.5,30.34,SE,135,0.0,5.8,47,0.00,,,0.00,WUHU21623XXSP,2013-06-20 17:55:00,
2013-06-20 14:00:00,73.4,54.1,30.34,South,180,0.0,3.4,51,0.00,,,0.00,WUHU21623XXSP,2013-06-20 18:00:00,
2013-06-20 14:05:00,73.2,54.4,30.34,NW,315,0.0,2.5,52,0.00,,,0.00,WUHU21623XXSP,2013-06-20 18:05:00,
2013-06-20 14:10:00,73.4,48.3,30.34,WSW,247,0.0,5.4,41,0.00,,,0.00,WUHU21623XXSP,2013-06-20 18:10:00,
2013-06-20 14:15:00,73.8,48.0,30.33,WSW,247,3.4,6.5,40,0.00,,,0.00,WUHU21623XXSP,2013-06-20 18:15:00,
2013-06-20 14:20:00,74.5,49.2,30.33,WSW,247,0.0,6.5,41,0.00,,,0.00,WUHU21623XXSP,2013-06-20 18:20:00,
2013-06-20 14:25:00,74.5,49.8,30.34,ENE,67,0.0,6.3,42,0.00,,,0.00,WUHU21623XXSP,2013-06-20 18:25:00,
2013-06-20 14:30:00,74.8,49.5,30.34,WSW,247,1.6,4.9,41,0.00,,,0.00,WUHU21623XXSP,2013-06-20 18:30:00,
2013-06-20 14:35:00,75.0,49.7,30.34,WSW,247,0.0,7.4,41,0.00,,,0.00,WUHU21623XXSP,2013-06-20 18:35:00,
2013-06-20 14:40:00,75.0,52.2,30.34,WSW,247,0.0,7.4,45,0.00,,,0.00,WUHU21623XXSP,2013-06-20 18:40:00,
2013-06-20 14:45:00,75.0,48.4,30.33,WSW,247,0.0,6.5,39,0.00,,,0.00,WUHU21623XXSP,2013-06-20 18:45:00,
2013-06-20 14:50:00,75.6,50.2,30.33,WSW,247,0.0,7.8,41,0.00,,,0.00,WUHU21623XXSP,2013-06-20 18:50:00,
2013-06-20 14:55:00,75.7,49.8,30.33,SE,135,0.0,7.8,40,0.00,,,0.00,WUHU21623XXSP,2013-06-20 18:55:00,
2013-06-20 15:00:00,76.1,51.3,30.33,WSW,247,0.0,6.5,42,0.00,,,0.00,WUHU21623XXSP,2013-06-20 19:00:00,
2013-06-20 15:05:00,75.4,50.1,30.33,SE,135,2.0,6.5,41,0.00,,,0.00,WUHU21623XXSP,2013-06-20 19:05:00,
2013-06-20 15:10:00,75.4,51.9,30.33,WSW,247,0.0,4.7,44,0.00,,,0.00,WUHU21623XXSP,2013-06-20 19:10:00,
2013-06-20 15:15:00,75.7,53.4,30.33,WSW,247,0.0,4.7,46,0.00,,,0.00,WUHU21623XXSP,2013-06-20 19:15:00,
2013-06-20 15:20:00,75.9,53.0,30.33,WSW,247,0.0,6.5,45,0.00,,,0.00,WUHU21623XXSP,2013-06-20 19:20:00,
2013-06-20 15:25:00,76.1,51.3,30.33,NE,45,0.0,6.5,42,0.00,,,0.00,WUHU21623XXSP,2013-06-20 19:25:00,
2013-06-20 15:30:00,75.9,54.2,30.33,WSW,247,0.0,6.0,47,0.00,,,0.00,WUHU21623XXSP,2013-06-20 19:30:00,
2013-06-20 15:35:00,76.8,50.0,30.33,WSW,247,0.0,7.4,39,0.00,,,0.00,WUHU21623XXSP,2013-06-20 19:35:00,
2013-06-20 15:40:00,76.5,52.3,30.33,WSW,247,0.0,7.4,43,0.00,,,0.00,WUHU21623XXSP,2013-06-20 19:40:00,
2013-06-20 15:45:00,75.9,53.0,30.32,WSW,247,0.0,0.0,45,0.00,,,0.00,WUHU21623XXSP,2013-06-20 19:45:00,
2013-06-20 15:50:00,75.7,51.6,30.33,South,180,0.0,7.2,43,0.00,,,0.00,WUHU21623XXSP,2013-06-20 19:50:00,
2013-06-20 15:55:00,75.0,50.3,30.33,WSW,247,0.0,7.2,42,0.00,,,0.00,WUHU21623XXSP,2013-06-20 19:55:00,
2013-06-20 16:00:00,75.9,49.9,30.32,East,90,0.0,2.2,40,0.00,,,0.00,WUHU21623XXSP,2013-06-20 20:00:00,
2013-06-20 16:05:00,73.9,51.7,30.32,East,90,0.0,0.0,46,0.00,,,0.00,WUHU21623XXSP,2013-06-20 20:05:00,
2013-06-20 16:10:00,72.3,52.0,30.32,East,90,0.0,0.0,49,0.00,,,0.00,WUHU21623XXSP,2013-06-20 20:10:00,
2013-06-20 16:15:00,71.4,50.6,30.32,South,180,0.0,2.2,48,0.00,,,0.00,WUHU21623XXSP,2013-06-20 20:15:00,
2013-06-20 16:20:00,72.9,53.6,30.32,WSW,247,0.0,2.2,51,0.00,,,0.00,WUHU21623XXSP,2013-06-20 20:20:00,
2013-06-20 16:25:00,73.9,54.6,30.32,WSW,247,0.0,3.1,51,0.00,,,0.00,WUHU21623XXSP,2013-06-20 20:25:00,
2013-06-20 16:30:00,74.8,51.4,30.32,WSW,247,0.0,3.1,44,0.00,,,0.00,WUHU21623XXSP,2013-06-20 20:30:00,
2013-06-20 16:35:00,75.6,50.2,30.32,WSW,247,0.0,0.0,41,0.00,,,0.00,WUHU21623XXSP,2013-06-20 20:35:00,
2013-06-20 16:40:00,75.0,50.3,30.31,WSW,247,0.0,2.0,42,0.00,,,0.00,WUHU21623XXSP,2013-06-20 20:40:00,
2013-06-20 16:45:00,74.8,50.8,30.31,WSW,247,0.0,4.9,43,0.00,,,0.00,WUHU21623XXSP,2013-06-20 20:45:00,
2013-06-20 16:50:00,74.5,49.2,30.31,WSW,247,4.5,6.7,41,0.00,,,0.00,WUHU21623XXSP,2013-06-20 20:50:00,
2013-06-20 16:55:00,74.8,50.2,30.31,WSW,247,0.0,6.7,42,0.00,,,0.00,WUHU21623XXSP,2013-06-20 20:55:00,
2013-06-20 17:00:00,73.9,51.7,30.31,WSW,247,0.0,6.0,46,0.00,,,0.00,WUHU21623XXSP,2013-06-20 21:00:00,
2013-06-20 17:05:00,73.9,52.3,30.32,WSW,247,0.0,6.3,47,0.00,,,0.00,WUHU21623XXSP,2013-06-20 21:05:00,
2013-06-20 17:10:00,74.1,50.7,30.31,WSW,247,0.0,6.3,44,0.00,,,0.00,WUHU21623XXSP,2013-06-20 21:10:00,
2013-06-20 17:15:00,73.9,49.9,30.31,WSW,247,0.0,0.0,43,0.00,,,0.00,WUHU21623XXSP,2013-06-20 21:15:00,
2013-06-20 17:20:00,73.2,52.8,30.31,WSW,247,0.0,2.0,49,0.00,,,0.00,WUHU21623XXSP,2013-06-20 21:20:00,
2013-06-20 17:25:00,73.0,49.1,30.31,WSW,247,0.0,2.7,43,0.00,,,0.00,WUHU21623XXSP,2013-06-20 21:25:00,
2013-06-20 17:30:00,73.0,51.5,30.31,WSW,247,0.0,4.0,47,0.00,,,0.00,WUHU21623XXSP,2013-06-20 21:30:00,
2013-06-20 17:35:00,73.0,51.5,30.31,WSW,247,6.5,6.5,47,0.00,,,0.00,WUHU21623XXSP,2013-06-20 21:35:00,
2013-06-20 17:40:00,72.5,51.6,30.31,WSW,247,0.0,6.5,48,0.00,,,0.00,WUHU21623XXSP,2013-06-20 21:40:00,
2013-06-20 17:45:00,72.5,50.4,30.31,WSW,247,0.0,4.7,46,0.00,,,0.00,WUHU21623XXSP,2013-06-20 21:45:00,
2013-06-20 17:50:00,73.0,48.5,30.31,WSW,247,0.0,4.7,42,0.00,,,0.00,WUHU21623XXSP,2013-06-20 21:50:00,
2013-06-20 17:55:00,73.2,48.7,30.30,WSW,247,0.0,4.7,42,0.00,,,0.00,WUHU21623XXSP,2013-06-20 21:55:00,
2013-06-20 18:00:00,73.2,49.3,30.31,WSW,247,0.0,4.7,43,0.00,,,0.00,WUHU21623XXSP,2013-06-20 22:00:00,
2013-06-20 18:05:00,72.7,48.2,30.31,WSW,247,0.0,4.0,42,0.00,,,0.00,WUHU21623XXSP,2013-06-20 22:05:00,
2013-06-20 18:10:00,72.1,47.7,30.31,WSW,247,0.0,4.0,42,0.00,,,0.00,WUHU21623XXSP,2013-06-20 22:10:00,
2013-06-20 18:15:00,72.5,47.3,30.31,West,270,0.0,1.8,42,0.00,,,0.00,WUHU21623XXSP,2013-06-20 22:15:00,
2013-06-20 18:20:00,72.3,47.9,30.31,SSE,157,2.7,2.7,42,0.00,,,0.00,WUHU21623XXSP,2013-06-20 22:20:00,
2013-06-20 18:25:00,72.3,49.1,30.31,SE,135,5.6,5.8,44,0.00,,,0.00,WUHU21623XXSP,2013-06-20 22:25:00,
2013-06-20 18:30:00,71.8,48.6,30.31,South,180,0.0,5.8,44,0.00,,,0.00,WUHU21623XXSP,2013-06-20 22:30:00,
2013-06-20 18:35:00,71.2,47.5,30.31,SE,135,0.0,5.6,42,0.00,,,0.00,WUHU21623XXSP,2013-06-20 22:35:00,
2013-06-20 18:40:00,70.9,46.6,30.31,SW,225,0.0,1.8,42,0.00,,,0.00,WUHU21623XXSP,2013-06-20 22:40:00,
2013-06-20 18:45:00,70.5,47.4,30.31,SW,225,0.0,1.6,44,0.00,,,0.00,WUHU21623XXSP,2013-06-20 22:45:00,
2013-06-20 18:50:00,70.2,45.3,30.31,WNW,292,0.0,0.0,41,0.00,,,0.00,WUHU21623XXSP,2013-06-20 22:50:00,
2013-06-20 18:55:00,70.5,44.3,30.31,SSW,202,0.0,0.0,39,0.00,,,0.00,WUHU21623XXSP,2013-06-20 22:55:00,
2013-06-20 19:00:00,70.5,44.3,30.31,South,180,0.0,0.0,39,0.00,,,0.00,WUHU21623XXSP,2013-06-20 23:00:00,
2013-06-20 19:05:00,70.3,44.2,30.31,SW,225,0.0,5.1,39,0.00,,,0.00,WUHU21623XXSP,2013-06-20 23:05:00,
2013-06-20 19:10:00,70.2,43.3,30.31,WNW,292,0.0,5.1,38,0.00,,,0.00,WUHU21623XXSP,2013-06-20 23:10:00,
2013-06-20 19:15:00,70.0,43.8,30.31,WSW,247,0.0,1.3,39,0.00,,,0.00,WUHU21623XXSP,2013-06-20 23:15:00,
2013-06-20 19:20:00,69.6,43.5,30.31,West,270,0.0,0.0,39,0.00,,,0.00,WUHU21623XXSP,2013-06-20 23:20:00,
2013-06-20 19:25:00,69.4,42.6,30.31,SSE,157,0.0,0.0,38,0.00,,,0.00,WUHU21623XXSP,2013-06-20 23:25:00,
2013-06-20 19:30:00,68.9,42.9,30.32,SSE,157,0.0,0.0,39,0.00,,,0.00,WUHU21623XXSP,2013-06-20 23:30:00,
2013-06-20 19:35:00,68.7,44.0,30.31,SSE,157,0.0,0.0,41,0.00,,,0.00,WUHU21623XXSP,2013-06-20 23:35:00,
2013-06-20 19:39:00,68.7,43.4,30.32,South,180,0.0,0.0,40,0.00,,,0.00,WUHU21623XXSP,2013-06-20 23:39:00,
2013-06-20 19:44:00,68.4,43.1,30.32,South,180,0.0,0.0,40,0.00,,,0.00,WUHU21623XXSP,2013-06-20 23:44:00,
2013-06-20 19:49:00,67.8,42.6,30.32,South,180,0.0,0.0,40,0.00,,,0.00,WUHU21623XXSP,2013-06-20 23:49:00,
2013-06-20 19:54:00,67.5,42.9,30.32,SSE,157,0.0,0.0,41,0.00,,,0.00,WUHU21623XXSP,2013-06-20 23:54:00,
2013-06-20 19:59:00,67.3,43.3,30.32,SSE,157,0.0,0.0,42,0.00,,,0.00,WUHU21623XXSP,2013-06-20 23:59:00,
2013-06-20 20:04:00,66.7,43.4,30.32,SSE,157,0.0,0.0,43,0.00,,,0.00,WUHU21623XXSP,2013-06-21 00:04:00,
2013-06-20 20:09:00,66.4,42.5,30.31,South,180,0.0,0.0,42,0.00,,,0.00,WUHU21623XXSP,2013-06-21 00:09:00,
2013-06-20 20:14:00,66.0,41.0,30.32,SSE,157,0.0,0.0,40,0.00,,,0.00,WUHU21623XXSP,2013-06-21 00:14:00,
2013-06-20 20:19:00,66.0,41.6,30.32,SSE,157,0.0,0.0,41,0.00,,,0.00,WUHU21623XXSP,2013-06-21 00:19:00,
2013-06-20 20:24:00,66.0,42.8,30.32,SSE,157,0.0,0.0,43,0.00,,,0.00,WUHU21623XXSP,2013-06-21 00:24:00,
2013-06-20 20:29:00,65.3,42.1,30.32,SSE,157,0.0,0.0,43,0.00,,,0.00,WUHU21623XXSP,2013-06-21 00:29:00,
2013-06-20 20:34:00,64.9,41.2,30.33,SSE,157,0.0,0.0,42,0.00,,,0.00,WUHU21623XXSP,2013-06-21 00:34:00,
2013-06-20 20:39:00,64.6,41.5,30.32,SSE,157,0.0,0.0,43,0.00,,,0.00,WUHU21623XXSP,2013-06-21 00:39:00,
2013-06-20 20:44:00,64.0,42.1,30.33,SSE,157,0.0,0.0,45,0.00,,,0.00,WUHU21623XXSP,2013-06-21 00:44:00,
2013-06-20 20:49:00,63.5,42.8,30.33,SSE,157,0.0,0.0,47,0.00,,,0.00,WUHU21623XXSP,2013-06-21 00:49:00,
2013-06-20 20:54:00,63.1,45.6,30.33,SSE,157,0.0,0.0,53,0.00,,,0.00,WUHU21623XXSP,2013-06-21 00:54:00,
2013-06-20 20:59:00,62.8,43.3,30.33,SSE,157,0.0,0.0,49,0.00,,,0.00,WUHU21623XXSP,2013-06-21 00:59:00,
2013-06-20 21:04:00,62.6,43.1,30.33,SSE,157,0.0,0.0,49,0.00,,,0.00,WUHU21623XXSP,2013-06-21 01:04:00,
2013-06-20 21:09:00,63.0,42.9,30.33,SSE,157,0.0,0.0,48,0.00,,,0.00,WUHU21623XXSP,2013-06-21 01:09:00,
2013-06-20 21:14:00,63.0,42.9,30.33,SSE,157,0.0,0.0,48,0.00,,,0.00,WUHU21623XXSP,2013-06-21 01:14:00,
2013-06-20 21:19:00,62.8,43.3,30.33,SSE,157,0.0,0.0,49,0.00,,,0.00,WUHU21623XXSP,2013-06-21 01:19:00,
2013-06-20 21:24:00,62.2,42.2,30.33,SSE,157,0.0,0.0,48,0.00,,,0.00,WUHU21623XXSP,2013-06-21 01:24:00,
2013-06-20 21:29:00,62.2,42.2,30.33,SSE,157,0.0,0.0,48,0.00,,,0.00,WUHU21623XXSP,2013-06-21 01:29:00,
2013-06-20 21:34:00,61.9,42.5,30.33,SSE,157,0.0,0.0,49,0.00,,,0.00,WUHU21623XXSP,2013-06-21 01:34:00,
2013-06-20 21:39:00,62.2,42.8,30.34,SSE,157,0.0,0.0,49,0.00,,,0.00,WUHU21623XXSP,2013-06-21 01:39:00,
2013-06-20 21:44:00,62.1,42.6,30.33,SSE,157,0.0,0.0,49,0.00,,,0.00,WUHU21623XXSP,2013-06-21 01:44:00,
2013-06-20 21:49:00,61.5,42.2,30.34,SSE,157,0.0,0.0,49,0.00,,,0.00,WUHU21623XXSP,2013-06-21 01:49:00,
2013-06-20 21:54:00,61.5,42.2,30.34,SSE,157,0.0,0.0,49,0.00,,,0.00,WUHU21623XXSP,2013-06-21 01:54:00,
2013-06-20 21:59:00,61.3,42.0,30.34,SSE,157,0.0,0.0,49,0.00,,,0.00,WUHU21623XXSP,2013-06-21 01:59:00,
2013-06-20 22:04:00,61.2,41.8,30.34,SSE,157,0.0,0.0,49,0.00,,,0.00,WUHU21623XXSP,2013-06-21 02:04:00,
2013-06-20 22:09:00,61.3,42.6,30.34,SSE,157,0.0,0.0,50,0.00,,,0.00,WUHU21623XXSP,2013-06-21 02:09:00,
2013-06-20 22:14:00,61.3,42.6,30.34,SSE,157,0.0,0.0,50,0.00,,,0.00,WUHU21623XXSP,2013-06-21 02:14:00,
2013-06-20 22:19:00,61.3,42.6,30.34,SSE,157,0.0,0.0,50,0.00,,,0.00,WUHU21623XXSP,2013-06-21 02:19:00,
2013-06-20 22:24:00,61.3,42.6,30.34,SSE,157,0.0,0.0,50,0.00,,,0.00,WUHU21623XXSP,2013-06-21 02:24:00,
2013-06-20 22:29:00,61.5,42.7,30.34,SSE,157,0.0,0.0,50,0.00,,,0.00,WUHU21623XXSP,2013-06-21 02:29:00,
2013-06-20 22:34:00,61.5,43.2,30.34,SSE,157,0.0,0.0,51,0.00,,,0.00,WUHU21623XXSP,2013-06-21 02:34:00,
2013-06-20 22:39:00,61.5,42.7,30.34,SSE,157,0.0,0.0,50,0.00,,,0.00,WUHU21623XXSP,2013-06-21 02:39:00,
2013-06-20 22:44:00,61.7,42.9,30.34,SSE,157,0.0,0.0,50,0.00,,,0.00,WUHU21623XXSP,2013-06-21 02:44:00,
2013-06-20 22:49:00,61.5,43.2,30.34,SSE,157,0.0,0.0,51,0.00,,,0.00,WUHU21623XXSP,2013-06-21 02:49:00,
2013-06-20 22:54:00,61.5,43.2,30.34,SSE,157,0.0,0.0,51,0.00,,,0.00,WUHU21623XXSP,2013-06-21 02:54:00,
2013-06-20 22:59:00,61.7,43.4,30.34,SSE,157,0.0,0.0,51,0.00,,,0.00,WUHU21623XXSP,2013-06-21 02:59:00,
2013-06-20 23:04:00,61.7,43.4,30.35,SSE,157,0.0,0.0,51,0.00,,,0.00,WUHU21623XXSP,2013-06-21 03:04:00,
2013-06-20 23:09:00,61.7,43.9,30.35,SSE,157,0.0,0.0,52,0.00,,,0.00,WUHU21623XXSP,2013-06-21 03:09:00,
2013-06-20 23:14:00,61.7,43.9,30.34,SSE,157,0.0,0.0,52,0.00,,,0.00,WUHU21623XXSP,2013-06-21 03:14:00,
2013-06-20 23:19:00,61.7,43.9,30.34,SSE,157,0.0,0.0,52,0.00,,,0.00,WUHU21623XXSP,2013-06-21 03:19:00,
2013-06-20 23:24:00,61.5,44.2,30.35,SSE,157,0.0,0.0,53,0.00,,,0.00,WUHU21623XXSP,2013-06-21 03:24:00,
2013-06-20 23:29:00,61.5,44.2,30.35,SSE,157,0.0,0.0,53,0.00,,,0.00,WUHU21623XXSP,2013-06-21 03:29:00,
2013-06-20 23:34:00,61.5,44.7,30.35,SSE,157,0.0,0.0,54,0.00,,,0.00,WUHU21623XXSP,2013-06-21 03:34:00,
2013-06-20 23:39:00,61.3,44.5,30.35,SSE,157,0.0,0.0,54,0.00,,,0.00,WUHU21623XXSP,2013-06-21 03:39:00,
2013-06-20 23:44:00,61.3,45.0,30.35,SSE,157,0.0,0.0,55,0.00,,,0.00,WUHU21623XXSP,2013-06-21 03:44:00,
2013-06-20 23:49:00,61.2,44.3,30.35,SSE,157,0.0,0.0,54,0.00,,,0.00,WUHU21623XXSP,2013-06-21 03:49:00,
2013-06-20 23:54:00,61.0,44.7,30.35,SSE,157,0.0,0.0,55,0.00,,,0.00,WUHU21623XXSP,2013-06-21 03:54:00,
2013-06-20 23:59:00,61.0,44.7,30.35,SSE,157,0.0,0.0,55,0.00,,,0.00,WUHU21623XXSP,2013-06-21 03:59:00,